Preview of NWS' New Version of Forecast
This preview is not operational and should not be used for support decisions.

Regional Weather Roundup (RWR)

Issued by National Weather Service (NWS)

                            
000
ASUS46 KSEW 211610
RWRWA 

WASHINGTON REGIONAL WEATHER ROUNDUP
NATIONAL WEATHER SERVICE SEATTLE WA
900 AM PDT SUN JUL 21 2019

NOTE:"FAIR" INDICATES FEW OR NO CLOUDS BELOW 12,000 FEET WITH NO 
SIGNIFICANT WEATHER AND/OR OBSTRUCTIONS TO VISIBILITY.

WAZ507-509-555>559-211700-
SEATTLE, TACOMA, EVERETT, AND VICINITY
  
CITY           SKY/WX    TMP DP  RH WIND       PRES   REMARKS
EVERETT        SUNNY     69  54  58 VRB3      30.02S                  
BOEING FIELD   SUNNY     67  53  61 VRB3      30.01R                  
RENTON         SUNNY     66  54  65 N3        30.00S                  
SEATAC AIRPORT SUNNY     69  54  58 W3        30.01S                  
JBLM-MCCHORD   SUNNY     66  58  73 CALM      30.01S                  
PUYALLUP       FAIR      68  55  64 CALM      30.01S                  
BREMERTON      SUNNY     67  52  58 CALM      30.02R                  
JBLM-FT LEWIS  SUNNY     65  57  74 CALM      30.00S                  
TACOMA NARROWS SUNNY     66  50  56 N3        30.01S                  
$$
 
WAZ001-503-506-510-514-515-211700-
NORTH INTERIOR
  
CITY           SKY/WX    TMP DP  RH WIND       PRES   REMARKS
BELLINGHAM     SUNNY     67  54  63 S5        30.01R                  
FRIDAY HARBOR  SUNNY     63  51  65 SE3       30.02R                  
EASTSOUND      SUNNY     66  55  68 NW5       30.01R                  
PORT ANGELES   SUNNY     67  50  54 N3        30.03S                  
EDIZ HOOK      FAIR      58  50  75 NW5       30.02S                  
PORT TOWNSEND  FAIR      68  50  52 VRB7      30.00S                  
NAS WHIDBEY    MOSUNNY   62  52  69 W6        30.05S                  
ARLINGTON        N/A     65  53  65 CALM      30.01S                  
BURLINGTON     SUNNY     72  55  56 NE3       30.01S HAZE             
$$
 
WAZ020-022-039-040-504-511-512-211700-
SOUTHWEST INTERIOR
  
CITY           SKY/WX    TMP DP  RH WIND       PRES   REMARKS
SHELTON        SUNNY     67  49  52 CALM      29.99S                  
OLYMPIA        SUNNY     66  50  56 N6        30.01S                  
CHEHALIS       FAIR      64  52  63 CALM      30.02R                  
KELSO          CLOUDY    62  57  83 N3        30.03R                  
VANCOUVER      SUNNY     67  54  63 CALM      29.99S                  
SCAPPOOSE, OR  SUNNY     68  53  58 VRB3      29.99R                  
PORTLAND, OR   SUNNY     68  54  60 CALM      30.00S                  
$$
 
WAZ021-516-517-211700-
WASHINGTON COAST
  
CITY           SKY/WX    TMP DP  RH WIND       PRES   REMARKS
FORKS          SUNNY     60  53  77 CALM      30.02S                  
HOQUIAM        SUNNY     59  57  93 S3        30.02R                  
ASTORIA, OR    CLOUDY    61  58  90 SW5       30.02R                  
$$
 
WAZ019-023-024-040-567>569-211700-
CASCADE MOUNTAINS AND COLUMBIA GORGE
  
CITY           SKY/WX    TMP DP  RH WIND       PRES   REMARKS
STAMPEDE PASS  SUNNY     62  44  51 VRB5      30.15R                  
TROUTDALE, OR  SUNNY     67  52  58 N3        30.00S                  
HOOD RIVER, OR SUNNY     68  45  42 CALM      30.02S                  
THE DALLES, OR SUNNY     65  43  44 SW3       30.01S                  
$$

WAZ026-027-041>044-520-521-211700-
EAST SLOPES
  
CITY           SKY/WX    TMP DP  RH WIND       PRES   REMARKS
OMAK           SUNNY     71  47  42 N10       30.11S                  
WENATCHEE      SUNNY     67  41  38 SW9       30.09S                  
ELLENSBURG     SUNNY     67  43  41 W3        30.09S                  
YAKIMA         SUNNY     72  44  36 NW3       30.07S                  
SUNNYSIDE ARPT SUNNY     66  51  59 CALM      30.04                   
YAKIMA TC      FAIR      70  39  32 CALM      30.06R                  
$$

WAZ028-034-035-211700-
COLUMBIA BASIN
  
CITY           SKY/WX    TMP DP  RH WIND       PRES   REMARKS
EPHRATA        SUNNY     74  42  31 NE13      30.08R                  
MOSES LAKE     MOSUNNY   76  45  33 NE12      30.07S                  
PASCO          SUNNY     71  47  42 N6        30.04R                  
RICHLAND ARPT  SUNNY     74  44  33 N10       30.04                   
HERMISTON, OR  SUNNY     69  42  37 SE6       30.02S                  
$$

WAZ036>038-211700-
NORTHEAST WASHINGTON
  
CITY           SKY/WX    TMP DP  RH WIND       PRES   REMARKS
SPOKANE GEIGER MOSUNNY   66  44  45 NE9       30.12S                  
SPOKANE FELTS  SUNNY     67  46  47 VRB3      30.11F                  
FAIRCHILD AFB  MOSUNNY   67  44  43 NE15      30.12S                  
COEURDALENE,ID SUNNY     66  47  50 N17       30.13F                  
DEER PARK      MOSUNNY   69  44  40 NE20      30.13S                  
$$

WAZ029>033-211700-
SOUTHEAST WASHINGTON
  
CITY           SKY/WX    TMP DP  RH WIND       PRES   REMARKS
PULLMAN        SUNNY     69  40  34 SE12      30.10S                  
LEWISTON, ID   SUNNY     67  42  40 CALM      30.07S                  
WALLA WALLA    SUNNY     68  39  34 S8        30.03R                  
PENDLETON, OR  SUNNY     71  37  28 VRB3      30.03R                  
$$